Regional Weather Roundup
Issued by NWS

Home | Current Version | Previous Version | Graphics & Text | Print | Product List | Glossary On
Versions: 1 2 3 4 5 6 7 8 9 10 11 12 13 14 15 16 17 18 19 20 21 22 23 24 25 26 27 28 29 30 31 32 33 34 35 36 37 38 39 40 41 42 43 44 45 46 47 48 49 50
000
ASUS43 KMPX 100201
RWRMN
WEATHER ROUNDUP FOR MINNESOTA
NATIONAL WEATHER SERVICE TWIN CITIES/CHANHASSEN MN
800 PM CST TUE FEB 09 2016


NOTE: "FAIR" INDICATES FEW OR NO CLOUDS BELOW 12,000 FEET WITH NO
SIGNIFICANT WEATHER AND/OR OBSTRUCTIONS TO VISIBILITY. N/A MEANS
CURRENT SKY AND/OR WEATHER CONDITIONS ARE NOT AVAILABLE.

MNZ060>063-068>070-100300-
   Twin Cities Metro

CITY           SKY/WX    TMP DP  RH WIND       PRES   REMARKS
TWIN CITIES    PTCLDY    12  -2  53 NW9       30.15S WCI   0
ST PAUL        CLEAR     12  -3  51 NW13      30.16S WCI  -3
CRYSTAL        CLEAR     12  -1  56 N9        30.14S WCI   0
BLAINE         CLEAR     14   0  52 NW10G17   30.14R WCI   1
LAKEVILLE      CLEAR      7   0  72 NW6       30.13F WCI  -3
EDEN PRAIRIE   CLEAR     11  -2  56 NW6       30.13F WCI   1
SOUTH ST PAUL  CLEAR     13  -3  48 NW10      30.15R WCI   0
LAKE ELMO      FAIR      10   0  61 NW9       30.14S WCI  -2
$$
MNZ001>005-007-008-013>017-022>024-027-028-100300-
   Northwest Minnesota

CITY           SKY/WX    TMP DP  RH WIND       PRES   REMARKS
BEMIDJI        CLOUDY    -3  -8  82 W3        30.15F
HALLOCK        CLOUDY     1  -4  78 N8        30.27S WCI -12
ROSEAU         CLOUDY    -2  -9  71 NW6       30.23R WCI -14
WARROAD        CLOUDY     0  -8  71 N8        30.22S WCI -15
THIEF RVR FALL CLOUDY     0  -4  85 NW9       30.23R WCI -16
CROOKSTON      CLOUDY     1  -2  85 N9        30.27R WCI -14
FOSSTON          N/A     -8 -13  77 CALM      30.20S
DETROIT LAKES  CLOUDY     3   1  92 NW6       30.17F WCI  -8
MOORHEAD       PTCLDY     9   1  72 N9        30.24S WCI  -5
PARK RAPIDS    CLOUDY     1  -7  68 NW5       30.13F WCI  -9
MAHNOMEN       FAIR      -3  -6  86 NW7       30.19F WCI -17
$$
MNZ006-009>011-018-025>026-100300-
   North Central Minnesota

CITY           SKY/WX    TMP DP  RH WIND       PRES   REMARKS
BAUDETTE       CLOUDY    -1 -10  65 N7        30.17F WCI -14
FLAG ISLAND    CLOUDY    -2  -8  78 NW6       30.21S WCI -14
INTL FALLS     CLOUDY    -4  -9  79 NW8       30.15F WCI -19
WASKISH        CLOUDY     0  -6  78 NW3       30.17F
LONGVILLE      CLEAR      3  -6  66 NW3       30.13F
GRAND RAPIDS   CLEAR      1  -8  66 NW15      30.11F WCI -18
CRANE LAKE     PTCLDY    -9 -15  77 CALM      30.16F
ORR            CLEAR     -4  -9  77 CALM      30.10S
COOK           CLEAR      0  -8  71 NW5       30.11F WCI -10
WALKER         FAIR       1  -6  73 NW6       30.15F WCI -10
$$
MNZ012-019>021-037-100300-
   Northeast Minnesota

CITY           SKY/WX    TMP DP  RH WIND       PRES   REMARKS
DULUTH         CLEAR      2  -7  66 N12       30.05S WCI -15
ELY            CLOUDY     0  -6  78 NW6       30.07F WCI -12
HIBBING        CLEAR     -2  -9  72 NW10      30.09F WCI -19
EVELETH        CLEAR      3  -6  66 N8        30.10S WCI -10
DULUTH HARBOR  CLEAR     10   0  61 N13G18    30.15S WCI  -5
TWO HARBORS    CLEAR      5  -4  66 N7        30.06S WCI  -7
SILVER BAY     CLEAR      3  -6  66 NW8       30.05F WCI -10
GRAND MARAIS     N/A      4  -7  60 VRB3      30.11R
G MARAIS ARPRT CLOUDY    -2 -11  65 NW13G24   29.95S WCI -21
$$
MNZ029>031-032-039>041-046>048-054>057-064-100300-
   West Central Minnesota

CITY           SKY/WX    TMP DP  RH WIND       PRES   REMARKS
FERGUS FALLS   PTCLDY     9   1  72 N8        30.23F WCI  -4
WHEATON        CLOUDY    12   7  79 N3        30.23F
MORRIS         CLOUDY    12   3  67 NW13      30.18F WCI  -3
ALEXANDRIA     CLEAR      6  -2  69 NW9       30.15F WCI  -8
ELBOW LAKE     CLOUDY    10   2  72 N8        30.19F WCI  -3
WADENA         CLOUDY     1  -2  85 NW7       30.15F WCI -11
GLENWOOD       CLEAR      7   0  72 NW8       30.16F WCI  -6
APPLETON       CLOUDY    16   9  73 N10       30.20F WCI   3
BENSON         CLOUDY    12   3  67 N12       30.19F WCI  -2
ORTONVILLE     CLOUDY    14   7  73 N9        30.20F WCI   2
MADISON        CLOUDY    18   9  68 N9        30.21F WCI   6
WILLMAR        FAIR      12   7  79 NW10      30.18F WCI  -1
$$
MNZ033>034-036-042>043-049>051-058-059-100300-
   Central Minnesota

CITY           SKY/WX    TMP DP  RH WIND       PRES   REMARKS
ST CLOUD       CLEAR      8  -2  63 NW7       30.14F WCI  -3
SAUK CENTRE    FAIR       6  -1  72 NW9       30.16F WCI  -8
PAYNESVILLE    CLEAR      9   1  69 NW9       30.16F WCI  -5
AITKIN         CLEAR      7  -6  56 NW3       30.12F
PINE RIVER     CLEAR      3  -2  78 NW5       30.17F WCI  -6
BRAINERD       CLEAR      4  -6  63 N9        30.14F WCI -10
STAPLES        CLEAR      3  -2  78 NW6       30.15F WCI  -8
LONG PRAIRIE   FAIR       5   0  78 W9        30.15F WCI  -9
LITTLE FALLS   CLEAR      9  -2  61 CALM      30.15F
LITCHFIELD     CLEAR     10   3  72 NW9       30.16S WCI  -2
BUFFALO        CLEAR     10   0  61 NW6       30.15F WCI   1
MAPLE LAKE     CLEAR     12   3  67 W7        30.15S WCI   1
$$
MNZ037-044-045-052-053-100300-
   East Central Minnesota

CITY           SKY/WX    TMP DP  RH WIND       PRES   REMARKS
PRINCETON      CLEAR      9  -2  61 NW5       30.14S WCI   0
MORA           CLEAR      9  -4  56 NW9       30.15S WCI  -5
CAMBRIDGE      CLEAR     10  -2  56 NW7       30.13S WCI   0
RUSH CITY      MOCLDY     8  -3  60 NW7       30.14S WCI  -3
MOOSE LAKE     CLEAR      7  -6  56 NW7       30.10S WCI  -5
HINCKLEY       FAIR       9  -4  56 NW7       30.13S WCI  -3
CLOQUET        CLEAR      5  -8  56 NW13G18   30.07F WCI -12
MCGREGOR       CLEAR      5  -2  72 NW10G16   30.12F WCI -10
$$
MNZ071>073-080-081-089-090-097-098-100300-
   Southwest Minnesota

CITY           SKY/WX    TMP DP  RH WIND       PRES   REMARKS
MONTEVIDEO     CLOUDY    14   9  79 N10       30.21F WCI   1
GRANITE FALLS  CLOUDY    17  11  77 NW10      30.21F WCI   5
CANBY          CLOUDY    21  14  76 N6        30.20F WCI  13
MARSHALL       CLOUDY    17  11  77 N9        30.19F WCI   6
REDWOOD FALLS  CLOUDY    15   8  73 NW12      30.19S WCI   2
OLIVIA         CLEAR     16   9  73 NW9       30.18S WCI   4
PIPESTONE      CLOUDY    21   9  58 N6        30.16F WCI  14
WINDOM         CLEAR     16  10  79 NW14      30.15F WCI   1
WORTHINGTON    CLOUDY    18   9  68 NW10      30.17F WCI   6
JACKSON        CLOUDY    18   9  68 NW18      30.15S WCI   2
TRACY          CLOUDY    18  12  76 NW10      30.18F WCI   6
SLAYTON        CLOUDY    17  13  86 NW9       30.16F WCI   5
$$
MNZ065>067-074>077-082>085-091>093-100300-
   South Central Minnesota

CITY           SKY/WX    TMP DP  RH WIND       PRES   REMARKS
MANKATO        CLEAR     10   1  67 NW9       30.15S WCI  -2
NEW ULM        CLEAR     12   5  73 NW14      30.16S WCI  -3
ST JAMES       CLEAR     12   7  79 NW12      30.18S WCI  -2
FAIRMONT       CLEAR     12   3  67 NW10      30.14F WCI  -1
GLENCOE        CLEAR     13   5  71 NW12      30.15S WCI  -1
FARIBAULT        N/A     10   0  61 NW9       30.13S WCI  -2
OWATONNA       CLEAR      9   0  66 NW15      30.11F WCI  -8
WASECA         CLEAR     10   1  67 NW10      30.14F WCI  -3
ALBERT LEA     CLEAR     10   1  67 NW10G16   30.11S WCI  -3
$$
MNZ078>079-086>088-094>096-100300-
   Southeast Minnesota

CITY           SKY/WX    TMP DP  RH WIND       PRES   REMARKS
ROCHESTER      CLEAR      6  -3  66 NW13      30.06S WCI -10
RED WING       CLEAR     12  -6  44 NW5       30.11S WCI   4
STANTON        CLEAR     10  -1  58 NW7       30.12S WCI   0
DODGE CENTER   PTCLDY     9   0  66 NW17      30.07S WCI -10
WINONA         CLEAR     14   3  62 NW12      30.10S WCI   0
AUSTIN         CLEAR     10   1  67 NW16G23   30.08S WCI  -7
PRESTON        CLEAR      6  -3  64 NW9       30.06S WCI  -7
$$
ABBREVIATIONS USED IN REMARKS
   TC - TEMPERATURES IN CELSIUS
  WCI - WIND CHILL INDEX
   HX - HEAT INDEX
  VSB - VISIBILITY
$$



USA.gov is the U.S. government's official web portal to all federal, state and local government web resources and services.